SL-19 DEB, 23489

Orbit data source: Space-Track

SL-19 DEB, 23489 is space debris in LEO originally from a launch on Mon, 26 Dec 1994 UTC launched from the Tyuratam Missile And Space Complex (TTMTR). Debris objects in space refer to the collection of defunct objects orbiting the Earth. Examples of debris include non-operational satellites, rocket bodies, and fragments generated from explosions, collisions, or faulty payload assembly.

Loading next visibility...
Identifier
23489, 1994-085M
Orbit
LEO
Last TLE update
5 hours ago
Origin
Manufacturer
Unknown
Mission
Spacecraft
Bus & Motor
Unknown
Mass
Unknown
Launch date (UTC)
1994-12-26 (31 years ago)
Launch vehicle
Unknown
Launch site
Tyuratam Missile And Space Complex (TTMTR)
Object type
Payload
Rocket body
Debris
Shape & HBR
Unknown
Radar Cross Section
Medium (>0.1 m² and <1 m²)

Expand to show TLE details & history

TLE from 5 hours ago
0 SL-19 DEB
1 23489U 94085M   25183.89549116 -.00000139  00000-0 -26660-2 0  9991
2 23489  64.9266 229.1650 0195231 266.7649 268.0929 11.28923278256751
Epoch: 2025-07-02T21:29Z
TLE epoch observation values (Epoch: 2025-07-02T21:29:30.436Z)
Latitude
6.62809°
Longitude
162.51603°
Altitude
2,025.383 km
Speed
6.885 km/s
True Right ascension
03h 04m 15s
True Declination
6° 35' 41"
Sunlit
Object was in daylight at epoch
Visualization orbit readout
Latitude
-55.80349°
Longitude
-151.43741°
Altitude
1,882.957 km
Speed
7.011 km/s
Apparent Right ascension
03h 58m 02s
Apparent Declination
-53° 14' 22"
Sunlit
Object is in daylight
Visualization observer readout
Local Sidereal Time
13:54:59
Azimuth
227.098° WSW
Elevation
-65.297°
Doppler factor
1
Orbital elements
Apogee altitude
2,178.312 km
Perigee altitude
1,850.613 km
Semi-major axis
8,392.6 km
Eccentricity
0.01952
Inclination
64.9266°
RAAN
229.165°
Arg. of periapsis
266.7649°
True anomaly
Unknown
Mean anomaly
268.0929°
Eccentric anomaly
Unknown
Mean motion
2.82292 °/min
Orbital period
127.53 mins
BSTAR
-0.002666
Loading maneuver chart data...
Loading SW <> Apogee altitude chart data...
Loading historical data...
Loading historical data...
Loading historical data...
Loading historical data...
Loading historical data...
Loading historical data...
Loading historical data...

SL-19 DEB Visibility forecast

Observer location: undefined°, undefined°

Span
Click to sort rows by Start time (UTC) header in descending order
Start Az.
Max El. time (UTC)
Max El. Az.
Max El.
End time (UTC)
End Az.
18 mins2025-07-03 02:54:00.884Z151.627° SSE2025-07-03 03:03:00.884Z99.465° ESE24.733°2025-07-03 03:12:00.884Z50.481° ENE
23 mins2025-07-03 05:03:00.884Z214.376° SW2025-07-03 05:14:00.884Z325.034° NNW44.677°2025-07-03 05:26:00.884Z31.406° NE
19 mins2025-07-03 07:19:00.884Z274.404° WNW2025-07-03 07:28:00.884Z327.617° NNW27.132°2025-07-03 07:38:00.884Z25.955° NE
16 mins2025-07-03 09:39:00.884Z324.799° NNW2025-07-03 09:46:00.884Z2.723° NNE19.707°2025-07-03 09:55:00.884Z50.619° ENE
20 mins2025-07-03 11:54:00.884Z336.631° NNW2025-07-03 12:04:00.884Z41.198° NE32.247°2025-07-03 12:14:00.884Z103.129° ESE
22 mins2025-07-03 14:06:00.884Z324.926° NNW2025-07-03 14:17:00.884Z252.125° W43.915°2025-07-03 14:28:00.884Z162.261° S
11 mins2025-07-03 16:22:00.884Z292.224° WNW2025-07-03 16:27:00.884Z265.695° W15.664°2025-07-03 16:33:00.884Z233.434° WSW
|